EW1423 Weather Reports


Display with metric or nautical units.
time (UTC)temp
F
wind
direction
speed
MPH
gust
MPH
rain 1hr
in
rain 24hr
in
rain mn
in
humidity
%
barometer
mb
20260906202803 59 96 0.0 0.0 0.00 0.00 0.00 81 1023.8
20260906201804 59 96 0.0 0.0 0.00 0.00 0.00 80 1023.7
20260906201303 59 96 0.0 0.0 0.00 0.00 0.00 80 1023.9
20260906200803 59 96 0.0 0.0 0.00 0.00 0.00 80 1023.9
20260906200303 60 96 0.0 0.0 0.00 0.00 0.00 80 1023.9
20260906195804 60 96 0.0 0.0 0.00 0.00 0.00 80 1023.9
20260906195306 60 96 0.0 0.0 0.00 0.00 0.00 80 1023.9
20260906194804 60 96 0.0 0.0 0.00 0.00 0.00 81 1023.9
20260906193804 60 96 0.0 0.0 0.00 0.00 0.00 80 1023.6
20260906193304 61 96 0.0 0.0 0.00 0.00 0.00 80 1023.6
20260906192803 61 96 0.0 0.0 0.00 0.00 0.00 79 1023.6
20260906192307 61 96 0.0 0.0 0.00 0.00 0.00 79 1023.6
20260906191804 62 96 0.0 0.0 0.00 0.00 0.00 79 1023.6
20260906191303 62 96 0.0 0.0 0.00 0.00 0.00 78 1023.6
20260906190803 62 96 0.0 0.0 0.00 0.00 0.00 77 1023.6
20260906190304 63 96 0.0 0.0 0.00 0.00 0.00 77 1023.6
20260906185804 63 96 0.0 0.0 0.00 0.00 0.00 76 1023.4
20260906184803 64 96 0.0 0.0 0.00 0.00 0.00 74 1023.4
20260906183804 65 96 0.0 0.0 0.00 0.00 0.00 72 1023.4
20260906183303 66 96 0.0 0.0 0.00 0.00 0.00 69 1023.4
20260906182803 66 96 0.0 0.0 0.00 0.00 0.00 67 1023.4
20260906182306 67 96 0.0 0.0 0.00 0.00 0.00 64 1023.4
20260906181804 68 96 0.0 0.0 0.00 0.00 0.00 63 1023.4
20260906181304 69 96 0.0 0.0 0.00 0.00 0.00 63 1023.4
20260906180804 69 96 0.0 0.0 0.00 0.00 0.00 62 1023.4
20260906175804 70 90 0.0 0.0 0.00 0.00 0.00 61 1023.5
20260906174803 72 90 0.0 0.0 0.00 0.00 0.00 59 1023.5
20260906174303 72 87 0.0 0.0 0.00 0.00 0.00 59 1023.5
20260906173304 73 66 0.0 3.0 0.00 0.00 0.00 58 1023.5
20260906172803 73 54 0.0 0.0 0.00 0.00 0.00 58 1023.5
20260906172306 74 53 0.0 0.0 0.00 0.00 0.00 56 1023.5
20260906171803 74 69 0.0 1.0 0.00 0.00 0.00 56 1023.5
20260906171304 74 70 0.0 0.0 0.00 0.00 0.00 56 1023.5
20260906170804 75 71 0.0 0.0 0.00 0.00 0.00 53 1023.5
20260906170304 75 70 0.0 1.0 0.00 0.00 0.00 52 1023.5
20260906165804 76 71 0.0 0.0 0.00 0.00 0.00 52 1023.5
20260906165306 76 71 0.0 1.0 0.00 0.00 0.00 49 1023.5
20260906164803 77 50 0.0 0.0 0.00 0.00 0.00 50 1023.5
20260906164303 77 49 0.0 0.0 0.00 0.00 0.00 50 1023.5
20260906163804 78 67 0.0 5.0 0.00 0.00 0.00 47 1023.5
20260906163304 78 94 0.0 0.0 0.00 0.00 0.00 47 1023.5
20260906161804 80 90 0.0 0.0 0.00 0.00 0.00 43 1023.5
20260906161304 80 56 0.0 1.0 0.00 0.00 0.00 43 1023.5
20260906160804 81 154 0.0 1.0 0.00 0.00 0.00 41 1023.5
20260906160303 81 139 0.0 3.0 0.00 0.00 0.00 41 1023.5
20260906155803 82 42 0.0 2.0 0.00 0.00 0.00 41 1023.5
20260906155306 82 23 0.0 2.0 0.00 0.00 0.00 40 1023.5
20260906154303 82 53 1.0 5.0 0.00 0.00 0.00 39 1023.5
20260906153304 82 97 1.0 2.0 0.00 0.00 0.00 40 1023.7
20260906152804 82 44 0.0 2.0 0.00 0.00 0.00 39 1023.7
20260906152306 82 100 0.0 0.0 0.00 0.00 0.00 41 1023.7
20260906151804 81 170 0.0 2.0 0.00 0.00 0.00 41 1023.7
20260906151303 81 65 1.0 5.0 0.00 0.00 0.00 40 1023.7
20260906150804 81 90 0.0 1.0 0.00 0.00 0.00 41 1023.7
20260906150304 81 30 0.0 2.0 0.00 0.00 0.00 41 1024.3
20260906145804 81 91 0.0 3.0 0.00 0.00 0.00 42 1024.3
20260906145306 81 106 1.0 6.0 0.00 0.00 0.00 42 1024.3
20260906143803 80 55 0.0 1.0 0.00 0.00 0.00 41 1024.3
20260906142804 83 61 0.0 5.0 0.00 0.00 0.00 39 1024.3
20260906142306 82 24 0.0 0.0 0.00 0.00 0.00 38 1024.3
20260906141804 81 36 0.0 0.0 0.00 0.00 0.00 40 1024.3
20260906140804 80 52 0.0 1.0 0.00 0.00 0.00 43 1024.3
20260906140303 80 343 0.0 1.0 0.00 0.00 0.00 39 1024.3
20260906135803 81 5 0.0 1.0 0.00 0.00 0.00 38 1024.7
20260906135306 83 53 0.0 3.0 0.00 0.00 0.00 34 1024.7
20260906134803 83 88 0.0 0.0 0.00 0.00 0.00 33 1024.7
20260906134304 83 163 0.0 1.0 0.00 0.00 0.00 34 1024.7
20260906133804 83 75 0.0 2.0 0.00 0.00 0.00 37 1024.7
20260906133304 83 312 0.0 3.0 0.00 0.00 0.00 34 1024.9
20260906132803 82 57 1.0 5.0 0.00 0.00 0.00 36 1024.9
20260906132306 82 112 0.0 2.0 0.00 0.00 0.00 33 1025.3
20260906131804 82 168 0.0 2.0 0.00 0.00 0.00 32 1025.3
20260906131304 82 170 0.0 1.0 0.00 0.00 0.00 36 1025.3
20260906130804 82 133 0.0 0.0 0.00 0.00 0.00 34 1025.3
20260906125804 81 325 1.0 5.0 0.00 0.00 0.00 36 1025.3
20260906124804 81 328 1.0 3.0 0.00 0.00 0.00 38 1025.3
20260906123803 81 101 0.0 2.0 0.00 0.00 0.00 41 1025.4
20260906122803 81 172 0.0 3.0 0.00 0.00 0.00 38 1025.5
20260906122306 80 128 0.0 5.0 0.00 0.00 0.00 42 1026.1
20260906121803 80 134 1.0 3.0 0.00 0.00 0.00 39 1026.1
20260906121304 80 121 0.0 2.0 0.00 0.00 0.00 38 1026.1
20260906120804 80 77 0.0 2.0 0.00 0.00 0.00 42 1026.1
20260906120304 80 7 0.0 1.0 0.00 0.00 0.00 44 1026.1
20260906115306 79 5 0.0 1.0 0.00 0.00 0.00 44 1026.1
20260906114803 79 179 0.0 2.0 0.00 0.00 0.00 43 1026.1
20260906113803 79 270 0.0 0.0 0.00 0.00 0.00 45 1026.1
20260906113304 79 163 0.0 1.0 0.00 0.00 0.00 42 1026.1
20260906112804 79 153 0.0 3.0 0.00 0.00 0.00 42 1026.1
20260906112306 79 74 0.0 2.0 0.00 0.00 0.00 45 1026.2
20260906111304 79 245 0.0 1.0 0.00 0.00 0.00 46 1026.2
20260906110804 79 234 0.0 3.0 0.00 0.00 0.00 46 1026.6
20260906110304 78 104 0.0 2.0 0.00 0.00 0.00 48 1026.6
20260906105803 78 202 0.0 3.0 0.00 0.00 0.00 46 1026.6
20260906105306 78 200 0.0 1.0 0.00 0.00 0.00 44 1026.6
20260906104804 77 202 0.0 1.0 0.00 0.00 0.00 47 1026.6
20260906103304 77 107 0.0 0.0 0.00 0.00 0.00 53 1026.6
20260906102804 76 46 0.0 0.0 0.00 0.00 0.00 51 1026.6
20260906102306 76 83 0.0 1.0 0.00 0.00 0.00 50 1026.8
20260906101803 76 30 0.0 1.0 0.00 0.00 0.00 52 1026.8
20260906101303 76 127 0.0 0.0 0.00 0.00 0.00 53 1027.1
20260906100804 75 167 0.0 1.0 0.00 0.00 0.00 51 1027.1
20260906100304 75 129 0.0 0.0 0.00 0.00 0.00 50 1027.2
20260906095804 75 162 0.0 1.0 0.00 0.00 0.00 55 1027.3
20260906095306 74 167 0.0 2.0 0.00 0.00 0.00 57 1027.3
20260906094804 74 152 0.0 5.0 0.00 0.00 0.00 56 1027.3
20260906094303 74 108 0.0 2.0 0.00 0.00 0.00 54 1027.4
20260906093804 74 156 0.0 2.0 0.00 0.00 0.00 55 1027.4
20260906093304 73 153 0.0 2.0 0.00 0.00 0.00 58 1027.4
20260906092804 72 119 1.0 3.0 0.00 0.00 0.00 60 1027.5
20260906092306 71 227 3.0 7.0 0.00 0.00 0.00 57 1027.5
20260906091803 71 184 1.0 5.0 0.00 0.00 0.00 59 1027.5
20260906091304 70 207 0.0 2.0 0.00 0.00 0.00 63 1027.5
20260906085804 68 158 0.0 0.0 0.00 0.00 0.00 66 1027.5
20260906084804 67 48 0.0 2.0 0.00 0.00 0.00 68 1027.5
20260906084303 66 94 0.0 0.0 0.00 0.00 0.00 70 1027.8
20260906083804 66 195 0.0 0.0 0.00 0.00 0.00 72 1027.8
20260906083304 65 196 0.0 0.0 0.00 0.00 0.00 73 1027.8
20260906082803 64 202 0.0 2.0 0.00 0.00 0.00 73 1027.8
20260906082306 63 193 0.0 0.0 0.00 0.00 0.00 75 1027.8
20260906081803 63 171 0.0 0.0 0.00 0.00 0.00 75 1027.8
20260906081304 62 171 0.0 1.0 0.00 0.00 0.00 76 1027.8
20260906080804 62 171 0.0 0.0 0.00 0.00 0.00 76 1027.8
20260906080303 61 172 0.0 0.0 0.00 0.00 0.00 79 1028.2
20260906075804 61 172 0.0 0.0 0.00 0.00 0.00 80 1028.2
20260906075306 60 172 0.0 0.0 0.00 0.00 0.00 80 1028.2
20260906074804 60 172 0.0 0.0 0.00 0.00 0.00 81 1028.2
20260906074303 59 171 0.0 0.0 0.00 0.00 0.00 82 1028.2
20260906073803 59 170 0.0 0.0 0.00 0.00 0.00 81 1028.2
20260906073304 59 173 0.0 0.0 0.00 0.00 0.00 84 1028.1
20260906072803 58 173 0.0 1.0 0.00 0.00 0.00 84 1028.2
20260906072306 58 71 0.0 0.0 0.00 0.00 0.00 86 1028.2
20260906071804 57 173 0.0 1.0 0.00 0.00 0.00 86 1028.2
20260906071304 57 70 0.0 0.0 0.00 0.00 0.00 86 1028.2
20260906070803 56 70 0.0 0.0 0.00 0.00 0.00 86 1028.2
20260906070304 56 70 0.0 0.0 0.00 0.00 0.00 88 1028.2
20260906065804 56 136 0.0 0.0 0.00 0.00 0.00 88 1028.2
20260906065305 55 136 0.0 0.0 0.00 0.00 0.00 90 1028.2
20260906064804 55 136 0.0 0.0 0.00 0.00 0.00 91 1028.2
20260906064304 54 136 0.0 0.0 0.00 0.00 0.00 92 1028.2
20260906063804 54 136 0.0 0.0 0.00 0.00 0.00 93 1028.2
20260906063303 53 136 0.0 0.0 0.00 0.00 0.00 94 1028.2
20260906062803 53 136 0.0 0.0 0.00 0.00 0.00 95 1028.2
20260906062306 52 136 0.0 0.0 0.00 0.00 0.00 96 1028.2
20260906061803 52 136 0.0 0.0 0.00 0.00 0.00 97 1028.2
20260906060803 51 38 0.0 0.0 0.00 0.00 0.00 99 1028.2
20260906060304 50 38 0.0 0.0 0.00 0.00 0.00 99 1028.2
20260906055803 50 38 0.0 0.0 0.00 0.00 0.00 99 1028.2
20260906055306 50 304 0.0 0.0 0.00 0.00 0.00 100 1028.2
20260906054803 50 304 0.0 0.0 0.00 0.00 0.00 100 1028.2
20260906054303 49 304 0.0 0.0 0.00 0.00 0.00 100 1027.8
20260906053303 48 304 0.0 0.0 0.00 0.00 0.00 100 1027.8
20260906052803 48 304 0.0 0.0 0.00 0.00 0.00 100 1027.8
20260906051803 48 304 0.0 0.0 0.00 0.00 0.00 100 1027.8
20260906051304 48 304 0.0 0.0 0.00 0.00 0.00 100 1027.8
20260906050803 48 304 0.0 0.0 0.00 0.00 0.00 100 1027.8
20260906045804 48 304 0.0 0.0 0.00 0.00 0.00 100 1027.8
20260906044803 48 304 0.0 0.0 0.00 0.00 0.00 100 1027.8
20260906044303 48 304 0.0 0.0 0.00 0.00 0.00 100 1027.8
20260906043803 48 304 0.0 0.0 0.00 0.00 0.00 100 1027.8
20260906042804 48 304 0.0 0.0 0.00 0.00 0.00 100 1027.8
20260906042306 48 304 0.0 0.0 0.00 0.00 0.00 100 1027.7
20260906041804 48 304 0.0 0.0 0.00 0.00 0.00 100 1027.7
20260906041304 48 304 0.0 0.0 0.00 0.00 0.00 100 1027.7
20260906040804 48 304 0.0 0.0 0.00 0.00 0.00 100 1027.7
20260906040303 48 304 0.0 0.0 0.00 0.00 0.00 100 1027.7
20260906035804 48 304 0.0 0.0 0.00 0.00 0.00 100 1027.6
20260906035306 48 304 0.0 0.0 0.00 0.02 0.00 100 1027.6
20260906034804 48 304 0.0 0.0 0.00 0.03 0.00 100 1027.6
20260906034304 48 304 0.0 0.0 0.00 0.05 0.00 100 1027.6
20260906033804 48 304 0.0 0.0 0.00 0.06 0.00 100 1027.6
20260906033304 48 304 0.0 0.0 0.00 0.06 0.00 100 1027.6
20260906032803 48 304 0.0 0.0 0.00 0.07 0.00 99 1027.5
20260906032306 49 304 0.0 0.0 0.00 0.08 0.00 99 1027.5
20260906031803 49 304 0.0 0.0 0.00 0.10 0.00 99 1027.5
20260906031304 49 304 0.0 0.0 0.00 0.13 0.00 99 1027.5
20260906030804 49 304 0.0 0.0 0.00 0.14 0.00 99 1027.5
20260906030303 49 304 0.0 0.0 0.00 0.17 0.00 99 1027.5
20260906024804 49 304 0.0 0.0 0.00 0.24 0.00 100 1027.5
20260906024304 49 304 0.0 0.0 0.00 0.24 0.00 99 1027.5
20260906023804 49 304 0.0 0.0 0.00 0.26 0.00 99 1027.3
20260906023304 49 304 0.0 0.0 0.00 0.33 0.00 99 1027.3
20260906021803 49 304 0.0 0.0 0.00 0.44 0.00 99 1027.3
20260906021303 49 304 0.0 0.0 0.00 0.46 0.00 99 1027.3
20260906020803 49 304 0.0 0.0 0.00 0.49 0.00 99 1027.3
20260906020304 50 304 0.0 0.0 0.00 0.52 0.00 99 1027.2
20260906015804 50 304 0.0 0.0 0.00 0.53 0.00 99 1027.2
20260906015306 50 304 0.0 0.0 0.00 0.53 0.00 99 1027.2
20260906014804 50 304 0.0 0.0 0.00 0.53 0.00 98 1027.2
20260906014303 50 304 0.0 0.0 0.00 0.53 0.00 98 1027.2
20260906013803 50 304 0.0 0.0 0.00 0.53 0.00 99 1027.4
20260906013305 50 304 0.0 0.0 0.00 0.53 0.00 98 1027.4
20260906012804 50 304 0.0 0.0 0.00 0.53 0.00 98 1027.4
20260906012306 50 304 0.0 0.0 0.00 0.53 0.00 99 1027.4
20260906011803 50 304 0.0 0.0 0.00 0.53 0.00 99 1027.4
20260906011303 50 304 0.0 0.0 0.00 0.53 0.00 98 1027.4
20260906010804 50 304 0.0 0.0 0.00 0.53 0.00 98 1027.2
20260906010304 50 304 0.0 0.0 0.00 0.53 0.00 98 1027.2
20260906005804 51 304 0.0 0.0 0.00 0.53 0.00 98 1027.2
20260906005306 51 304 0.0 0.0 0.00 0.53 0.00 98 1027.2
20260906004804 51 304 0.0 0.0 0.00 0.53 0.00 98 1027.2
20260906004304 51 304 0.0 0.0 0.00 0.53 0.00 98 1026.7
20260906003803 51 304 0.0 0.0 0.00 0.53 0.00 98 1026.7
20260906003304 51 304 0.0 0.0 0.00 0.53 0.00 97 1026.7
20260906002803 51 304 0.0 0.0 0.00 0.53 0.00 98 1026.7
20260906001804 51 304 0.0 0.0 0.00 0.53 0.00 97 1026.7
20260906001303 51 304 0.0 0.0 0.00 0.53 0.00 97 1026.7
20260906000803 51 304 0.0 0.0 0.00 0.53 0.00 97 1026.7
20260906000304 51 304 0.0 0.0 0.00 0.53 0.00 96 1026.7
20260905235804 52 304 0.0 0.0 0.00 0.53 0.00 97 1026.7
20260905235306 52 304 0.0 0.0 0.00 0.53 0.00 96 1026.7
20260905234803 52 304 0.0 0.0 0.00 0.53 0.00 96 1026.7
20260905234304 52 304 0.0 0.0 0.00 0.53 0.00 96 1026.7
20260905233804 52 304 0.0 0.0 0.00 0.53 0.00 96 1026.7
20260905233304 52 304 0.0 0.0 0.00 0.53 0.00 96 1026.7
20260905232804 52 304 0.0 0.0 0.00 0.53 0.00 96 1026.7
20260905231803 53 304 0.0 0.0 0.00 0.53 0.00 96 1026.7
20260905231303 53 304 0.0 0.0 0.00 0.53 0.00 95 1026.7
20260905230803 53 304 0.0 0.0 0.00 0.53 0.00 95 1026.7
20260905225804 53 304 0.0 0.0 0.00 0.53 0.00 95 1026.5
20260905225306 53 304 0.0 0.0 0.00 0.53 0.00 95 1026.5
20260905224804 53 304 0.0 0.0 0.00 0.53 0.00 94 1026.3
20260905224304 53 304 0.0 0.0 0.00 0.53 0.00 92 1026.3
20260905223803 53 304 0.0 0.0 0.00 0.53 0.00 92 1026.3
20260905223303 53 304 0.0 0.0 0.00 0.53 0.00 91 1026.3
20260905222804 53 304 0.0 0.0 0.00 0.53 0.00 93 1026.2
20260905222306 53 304 0.0 0.0 0.00 0.53 0.00 93 1026.2
20260905221804 54 304 0.0 0.0 0.00 0.53 0.00 93 1026.2
20260905221303 54 304 0.0 0.0 0.00 0.53 0.00 93 1025.9
20260905220810 54 304 0.0 0.0 0.00 0.53 0.00 93 1025.9
20260905220304 54 304 0.0 0.0 0.00 0.53 0.00 93 1025.9
20260905215804 54 304 0.0 0.0 0.00 0.53 0.53 93 1025.9
20260905215306 55 304 0.0 0.0 0.00 0.53 0.53 93 1025.9
20260905214303 55 304 0.0 0.0 0.00 0.53 0.53 91 1025.9
20260905213804 55 304 0.0 0.0 0.00 0.53 0.53 91 1025.9
20260905213304 55 304 0.0 0.0 0.00 0.53 0.53 91 1025.8
20260905212803 55 304 0.0 0.0 0.00 0.53 0.53 91 1025.7
20260905212306 55 304 0.0 0.0 0.00 0.53 0.53 91 1025.5
20260905211804 55 304 0.0 0.0 0.00 0.53 0.53 90 1025.5
20260905210304 56 304 0.0 0.0 0.00 0.53 0.53 89 1025.5
20260905205804 56 304 0.0 0.0 0.00 0.53 0.53 88 1025.5
20260905205306 56 304 0.0 0.0 0.00 0.53 0.53 88 1025.5
20260905204304 57 304 0.0 0.0 0.00 0.53 0.53 86 1025.3
20260905203803 57 304 0.0 0.0 0.00 0.53 0.53 87 1025.3